Find Starlink 34635

NORAD ID: 64761 Int'l Des: 2025-147 Owner: SPXS Country: US Constellation: starlink operational
LEOCIRCULAR

实时位置

正在加载3D地球...

关于 Starlink 34635

正在加载描述...

即将过境

Passes for default location (London). Set your location on the main map for personalized predictions.

高度历史

Loading altitude history...

两行轨道根数

1 64761U 25147G 26107.28746642 .00007693 00000-0 27160-3 0 9992
2 64761 53.1599 63.2961 0001395 89.6634 270.4526 15.30200231 44662
Epoch: Apr 17, 2026 • Age: 9 hours

当前状态

高度 492.0 km
速度 7.62 km/s
星下点 -46.74°S, 148.93°W
发射日期 Jul 8, 2025
运行时间 0.7 years
类型 internet

技术详情

分类 Payload
质量 575.00 kg
干质量 530.00 kg
总质量 575.00 kg
长度 0.30 m
直径 4.10 m
跨度 29.00 m
形状 Box + pan
制造商 SPXS
平台类型 Starlink V2MO
阶段状态 In Orbit
所有者/国家 SPXS/US

Most Searched